{"data":{"norad_id":52093,"intl_designator":"2022-029F","name":"STARLINK-3673","alt_names":[],"object_type":"PAYLOAD","status":"ACTIVE","operator":null,"country":"US","launch_date":"2022-03-19","launch_site_code":"AFETR","launch_vehicle":null,"mission":null,"orbit_class":"UNKNOWN","rcs_meters":null,"size_class":null,"mass_kg":null,"dimensions":null,"purposes":["comms"],"wikipedia_slug":null,"has_3d_model":false,"image_url":null,"decayed_at":null,"tle_current":{"epoch":"2026-09-20T01:39:23.239872Z","epoch_age_seconds":92772,"freshness":"FRESH","line1":"1 52093U 22029F   26263.06901898  .00000486  00000+0  25532-4 0  9992","line2":"2 52093  53.1578 279.5271 0001202  83.9329 276.1810 15.34389365250236","mean_motion":15.34389365,"eccentricity":0.0001202,"inclination_deg":53.1578,"raan_deg":279.5271,"arg_perigee_deg":83.9329,"mean_anomaly_deg":276.181,"bstar":2.5532e-5,"rev_number":25023,"period_min":93.848408549156,"perigee_km":461.91257705455,"apogee_km":463.55712264726,"semimajor_km":6840.8718498509,"source":"CELESTRAK","updated_at":"2026-09-20T09:00:39.984371Z"}}}